FW2595 Weather Reports


time (UTC)temp
C
wind
direction
speed
KPH
gust
KPH
rain 1hr
cm
rain 24hr
cm
rain mn
cm
humidity
%
barometer
mb
20260505170039 15 224 1.6 8.0 0.00 0.00 0.00 82 1015.8
20260505164539 15 186 1.6 8.0 0.00 0.00 0.00 82 1015.5
20260505163039 14 207 0.0 8.0 0.00 0.00 0.00 83 1015.4
20260505161530 13 243 0.0 0.0 0.00 0.00 0.00 83 1015.4
20260505153034 12 219 0.0 0.0 0.00 0.00 0.00 82 1015.5
20260505151527 12 123 0.0 0.0 0.00 0.00 0.00 83 1015.2
20260505124515 12 306 0.0 6.4 0.00 0.00 0.00 79 1014.4
20260505123017 12 314 0.0 4.8 0.00 0.00 0.00 78 1014.5
20260505121512 12 298 0.0 8.0 0.00 0.00 0.00 78 1014.6
20260505120022 12 325 4.8 8.0 0.00 0.00 0.00 78 1014.6
20260505114510 12 324 0.0 3.2 0.00 0.00 0.00 79 1014.5
20260505113013 12 23 0.0 6.4 0.00 0.00 0.00 80 1014.5
20260505111522 11 17 0.0 0.0 0.00 0.00 0.00 83 1014.4
20260505101505 12 286 0.0 0.0 0.00 0.00 0.00 82 1014.4
20260505100104 12 13 0.0 0.0 0.00 0.00 0.00 80 1014.6
20260505094501 12 13 0.0 1.6 0.00 0.00 0.00 81 1014.5
20260505093100 12 294 0.0 3.2 0.00 0.00 0.00 82 1014.6
20260505093003 12 294 0.0 3.2 0.00 0.00 0.00 82 1014.5
20260505091619 12 292 1.6 8.0 0.00 0.00 0.00 84 1014.7
20260505090121 11 311 0.0 0.0 0.00 0.00 0.00 86 1015.0
20260505084614 11 284 0.0 0.0 0.00 0.00 0.00 87 1014.9
20260505083107 11 284 0.0 0.0 0.00 0.00 0.00 86 1015.0
20260505081601 11 12 0.0 0.0 0.00 0.00 0.00 85 1015.1
20260505080100 12 12 0.0 0.0 0.00 0.00 0.00 85 1015.1
20260505074550 12 12 0.0 0.0 0.00 0.00 0.00 85 1015.1
20260505073055 11 341 0.0 0.0 0.00 0.00 0.00 85 1015.0
20260505071554 12 341 0.0 0.0 0.00 0.00 0.00 85 1014.8
20260505070051 11 309 0.0 0.0 0.00 0.00 0.00 84 1014.8
20260505064545 11 242 0.0 0.0 0.00 0.00 0.00 85 1014.6
20260505063051 12 211 0.0 0.0 0.00 0.00 0.00 85 1014.6
20260505061544 12 211 0.0 0.0 0.00 0.00 0.00 85 1014.7
20260505060057 12 142 0.0 0.0 0.00 0.00 0.00 85 1014.8
20260505054543 12 282 0.0 0.0 0.00 0.00 0.00 85 1014.8
20260505053043 12 282 0.0 0.0 0.00 0.00 0.00 85 1014.9
20260505051542 12 311 0.0 4.8 0.00 0.00 0.00 85 1015.1
20260505041551 12 259 0.0 0.0 0.00 0.00 0.00 83 1014.7
20260505040046 12 277 0.0 1.6 0.00 0.00 0.00 83 1014.4
20260505034539 12 260 0.0 3.2 0.00 0.00 0.00 82 1014.3
20260505033039 12 236 0.0 4.8 0.00 0.00 0.00 82 1014.0
20260505031539 13 245 0.0 4.8 0.00 0.00 0.00 81 1014.1
20260505030048 13 311 0.0 11.3 0.00 0.00 0.00 82 1014.0
20260505024540 13 290 1.6 9.7 0.00 0.00 0.00 81 1013.9
20260505023036 13 266 1.6 11.3 0.00 0.00 0.00 80 1013.6
20260505021536 14 251 0.0 6.4 0.00 0.00 0.00 79 1013.6
20260505020040 15 267 1.6 9.7 0.00 0.00 0.00 76 1013.7
20260505014553 15 280 0.0 8.0 0.00 0.00 0.00 76 1013.8
20260505013039 15 273 3.2 17.7 0.00 0.00 0.00 74 1013.9
20260505011538 16 242 3.2 12.9 0.00 0.00 0.00 70 1014.1
20260505010031 16 284 6.4 19.3 0.00 0.00 0.00 69 1014.3
20260505004541 16 244 4.8 17.7 0.00 0.00 0.00 68 1014.4
20260505003049 17 268 4.8 16.1 0.00 0.00 0.00 65 1014.4
20260505001528 17 263 3.2 16.1 0.00 0.00 0.00 67 1014.2
20260505000034 17 252 6.4 19.3 0.00 0.00 0.00 68 1014.1
20260504234527 17 276 0.0 17.7 0.00 0.00 0.00 70 1014.1
20260504233028 17 262 4.8 22.5 0.00 0.00 0.00 69 1014.3
20260504231524 17 232 1.6 16.1 0.00 0.00 0.00 69 1014.3
20260504230023 17 256 4.8 22.5 0.00 0.00 0.00 69 1014.4
20260504224522 17 222 4.8 16.1 0.00 0.00 0.00 71 1014.6
20260504223021 17 232 3.2 16.1 0.00 0.00 0.00 73 1014.8
20260504221522 17 236 4.8 17.7 0.00 0.00 0.00 75 1014.9
20260504220019 17 219 1.6 11.3 0.00 0.00 0.00 75 1015.1
20260504214519 17 252 6.4 16.1 0.00 0.00 0.00 73 1015.2
20260504213023 17 239 4.8 17.7 0.00 0.00 0.00 73 1015.1
20260504211529 17 223 4.8 14.5 0.00 0.00 0.00 75 1015.5
20260504210015 17 212 6.4 16.1 0.00 0.00 0.00 77 1015.4
20260504204518 17 273 3.2 11.3 0.00 0.00 0.00 75 1015.5
20260504203012 17 156 4.8 16.1 0.00 0.00 0.00 76 1015.6
20260504201509 17 207 6.4 16.1 0.00 0.00 0.00 76 1015.6
20260504200009 17 229 4.8 12.9 0.00 0.00 0.00 77 1015.7
20260504194507 17 232 4.8 14.5 0.00 0.00 0.00 78 1015.7
20260504193007 17 221 4.8 12.9 0.00 0.00 0.00 79 1015.7
20260504191612 17 234 6.4 12.9 0.00 0.00 0.00 79 1015.6
20260504190002 16 219 6.4 12.9 0.00 0.00 0.00 77 1015.8
20260504184501 16 245 4.8 11.3 0.00 0.00 0.00 79 1015.9
20260504183058 16 192 4.8 11.3 0.00 0.00 0.00 80 1015.8
20260504181601 16 144 4.8 9.7 0.00 0.00 0.00 80 1015.7
20260504180055 16 141 3.2 9.7 0.00 0.00 0.00 82 1015.7
20260504174552 15 196 4.8 9.7 0.00 0.00 0.00 80 1015.5
20260504173054 15 215 1.6 9.7 0.00 0.00 0.00 83 1015.3
20260504171545 15 133 1.6 6.4 0.00 0.00 0.00 84 1015.3